THORAD AGENA D DEB, 42506

Orbit data source: Space-Track

THORAD AGENA D DEB, 42506 is space debris in SSO originally from a launch on Wed, 08 Apr 1970 UTC launched from the Air Force Western Test Range (AFWTR). Debris objects in space refer to the collection of defunct objects orbiting the Earth. Examples of debris include non-operational satellites, rocket bodies, and fragments generated from explosions, collisions, or faulty payload assembly.

Loading next visibility...
Identifier
42506, 1970-025RL
Orbit
SSO
Country
Flag of USUS
Related business
Manufacturer
Unknown
Mission
Spacecraft
Bus & Motor
Unknown
Mass
Unknown
Launch date (UTC)
1970-04-08 (56 years ago)
Launch vehicle
Unknown
Launch site
Air Force Western Test Range (AFWTR)
Object type
Payload
Rocket body
Debris
Shape & HBR
Unknown shape, 0.1 m
Radar Cross Section
Small (<0.1 m²)

Expand to show TLE details & history
Last TLE update: 2 days ago

TLE from 2 days ago
0 THORAD AGENA D DEB
1 42506U 70025RL  26254.42839470  .00000198  00000-0  22557-3 0  9999
2 42506  99.5566 331.1954 0050582  85.6937 274.9993 13.81671533294795
Epoch: 2026-09-11T10:16Z
TLE epoch observation values (Epoch: 2026-09-11T10:16:53.302Z)
Latitude
-0.00001°
Longitude
-173.47858°
Altitude
957.75 km
Speed
7.374 km/s
True Right ascension
22h 04m 46s
True Declination
0° 00' 00"
Sunlit
Object was in full shadow at epoch
Visualization orbit readout
Latitude
Unknown
Longitude
Unknown
Altitude
Unknown
Speed
Unknown
Apparent Right ascension
Unknown
Apparent Declination
Unknown
Sunlit
N/A
Visualization observer readout
Local Sidereal Time
02:10:42
Azimuth
Unknown
Elevation
Unknown
Doppler factor
Unknown
Orbital elements
Apogee altitude
992.309 km
Perigee altitude
918.122 km
Semi-major axis
7,333.353 km
Eccentricity
0.00506
Inclination
99.5566°
RAAN
331.1954°
Arg. of periapsis
85.6937°
True anomaly
274.42157°
Mean anomaly
274.9993°
Eccentric anomaly
274.71047°
Mean motion
3.45612 °/min
Orbital period
104.16 mins
BSTAR
0.00022557
Loading maneuver chart data...
Computing Atmospheric mass density...

Documentation

Showing up to 5 results
|